Time,TemperatureF,DewpointF,PressureIn,WindDirection,WindDirectionDegrees,WindSpeedMPH,WindSpeedGustMPH,Humidity,HourlyPrecipIn,Conditions,Clouds,dailyrainin,SolarRadiationWatts/m^2,SoftwareType,DateUTC
2013-03-11 00:00:00,33.5,11.9,30.16,NE,51,0.0,-999.0,40,-99.99,,,0.01,0.0,cwc,2013-03-11 06:00:00,
2013-03-11 00:05:00,34.6,7.2,30.18,NE,51,0.0,-999.0,24,-99.99,,,0.01,0.0,cwc,2013-03-11 06:05:00,
2013-03-11 00:10:00,35.2,7.8,30.18,NE,51,0.0,-999.0,24,-99.99,,,0.01,0.0,cwc,2013-03-11 06:10:00,
2013-03-11 00:15:00,38.3,27.9,30.18,NE,51,0.0,-999.0,71,-99.99,,,0.01,0.0,cwc,2013-03-11 06:15:00,
2013-03-11 00:20:00,36.0,36.0,30.14,NE,51,0.0,-999.0,100,-99.99,,,0.01,0.0,cwc,2013-03-11 06:20:00,
2013-03-11 00:25:00,32.9,11.7,30.14,NE,51,0.0,-999.0,41,-99.99,,,0.01,0.0,cwc,2013-03-11 06:25:00,
2013-03-11 00:30:00,32.4,16.9,30.14,NE,51,0.0,-999.0,57,-99.99,,,0.01,0.0,cwc,2013-03-11 06:30:00,
2013-03-11 00:35:00,31.9,16.4,30.20,NE,51,0.0,-999.0,57,-99.99,,,0.01,0.0,cwc,2013-03-11 06:35:00,
2013-03-11 00:40:00,31.5,16.0,30.20,NE,51,0.0,-999.0,57,-99.99,,,0.01,0.0,cwc,2013-03-11 06:40:00,
2013-03-11 00:45:00,30.4,5.9,30.20,NE,51,0.0,-999.0,32,-99.99,,,0.01,0.0,cwc,2013-03-11 06:45:00,
2013-03-11 00:50:00,30.6,6.8,30.19,NE,51,0.0,-999.0,34,-99.99,,,0.01,0.0,cwc,2013-03-11 06:50:00,
2013-03-11 00:55:00,31.6,9.6,30.19,NE,51,0.0,-999.0,39,-99.99,,,0.01,0.0,cwc,2013-03-11 06:55:00,
2013-03-11 01:00:00,30.4,5.2,30.19,NE,51,0.0,-999.0,30,-99.99,,,0.01,0.0,cwc,2013-03-11 07:00:00,
2013-03-11 01:05:00,28.7,8.5,30.24,NE,51,0.0,-999.0,44,-99.99,,,0.00,0.0,cwc,2013-03-11 07:05:00,
2013-03-11 01:10:00,28.1,8.7,30.24,NE,51,0.0,-999.0,46,-99.99,,,0.00,0.0,cwc,2013-03-11 07:10:00,
2013-03-11 01:15:00,27.8,8.7,30.24,NE,51,0.0,-999.0,47,-99.99,,,0.00,0.0,cwc,2013-03-11 07:15:00,
2013-03-11 01:20:00,27.6,9.2,30.22,NE,51,0.0,-999.0,49,-99.99,,,0.00,0.0,cwc,2013-03-11 07:20:00,
2013-03-11 01:25:00,30.7,12.0,30.22,NE,51,0.0,-999.0,48,-99.99,,,0.00,0.0,cwc,2013-03-11 07:25:00,
2013-03-11 01:30:00,30.7,12.0,30.22,NE,51,0.0,-999.0,48,-99.99,,,0.00,0.0,cwc,2013-03-11 07:30:00,
2013-03-11 01:35:00,29.0,7.0,30.21,NE,51,0.0,-999.0,39,-99.99,,,0.00,0.0,cwc,2013-03-11 07:35:00,
2013-03-11 01:40:00,28.2,1.2,30.21,NE,51,0.0,-999.0,25,-99.99,,,0.00,0.0,cwc,2013-03-11 07:40:00,
2013-03-11 01:45:00,28.7,2.1,30.21,NE,51,0.0,-999.0,26,-99.99,,,0.00,0.0,cwc,2013-03-11 07:45:00,
2013-03-11 01:50:00,29.0,3.1,30.21,NE,51,0.0,-999.0,28,-99.99,,,0.00,0.0,cwc,2013-03-11 07:50:00,
2013-03-11 01:55:00,31.6,6.8,30.21,NE,51,0.0,-999.0,31,-99.99,,,0.00,0.0,cwc,2013-03-11 07:55:00,
2013-03-11 02:00:00,31.9,15.0,30.21,NE,51,0.0,-999.0,53,-99.99,,,0.00,0.0,cwc,2013-03-11 08:00:00,
2013-03-11 02:05:00,30.4,12.0,30.17,NE,51,0.0,-999.0,49,-99.99,,,0.00,0.0,cwc,2013-03-11 08:05:00,
2013-03-11 02:10:00,29.1,9.7,30.17,NE,51,0.0,-999.0,46,-99.99,,,0.00,0.0,cwc,2013-03-11 08:10:00,
2013-03-11 02:15:00,32.4,17.6,30.17,NE,51,0.0,-999.0,59,-99.99,,,0.00,0.0,cwc,2013-03-11 08:15:00,
2013-03-11 02:20:00,35.2,19.4,30.16,NE,51,0.0,-999.0,56,-99.99,,,0.00,0.0,cwc,2013-03-11 08:20:00,
2013-03-11 02:25:00,34.9,20.9,30.16,NE,51,0.0,-999.0,61,-99.99,,,0.00,0.0,cwc,2013-03-11 08:25:00,
2013-03-11 02:30:00,36.3,1.7,30.16,NE,51,4.0,-999.0,4,-99.99,,,0.00,0.0,cwc,2013-03-11 08:30:00,
2013-03-11 02:35:00,35.8,-0.2,30.14,NE,51,0.0,-999.0,0,-99.99,,,0.00,0.0,cwc,2013-03-11 08:35:00,
2013-03-11 02:40:00,31.6,-4.4,30.14,NE,51,0.0,-999.0,0,-99.99,,,0.00,0.0,cwc,2013-03-11 08:40:00,
2013-03-11 02:45:00,30.7,-5.3,30.14,NE,51,0.0,-999.0,0,-99.99,,,0.00,0.0,cwc,2013-03-11 08:45:00,
2013-03-11 02:50:00,31.8,-4.2,30.18,NE,51,0.0,-999.0,0,-99.99,,,0.00,0.0,cwc,2013-03-11 08:50:00,
2013-03-11 02:55:00,32.2,-0.2,30.18,NE,51,0.0,-999.0,10,-99.99,,,0.00,0.0,cwc,2013-03-11 08:55:00,
2013-03-11 03:00:00,32.2,-3.8,30.18,NE,51,0.0,-999.0,0,-99.99,,,0.00,0.0,cwc,2013-03-11 09:00:00,
2013-03-11 03:05:00,29.5,-6.5,30.17,NE,51,0.0,-999.0,0,-99.99,,,0.00,0.0,cwc,2013-03-11 09:05:00,
2013-03-11 03:10:00,29.7,-6.3,30.17,NE,51,0.0,-999.0,0,-99.99,,,0.00,0.0,cwc,2013-03-11 09:10:00,
2013-03-11 03:15:00,29.8,29.8,30.17,NE,51,0.0,-999.0,100,-99.99,,,0.00,0.0,cwc,2013-03-11 09:15:00,
2013-03-11 03:20:00,32.2,32.2,30.17,NE,51,0.0,-999.0,100,-99.99,,,0.00,0.0,cwc,2013-03-11 09:20:00,
2013-03-11 03:25:00,31.9,31.9,30.17,NE,51,0.0,-999.0,100,-99.99,,,0.00,0.0,cwc,2013-03-11 09:25:00,
2013-03-11 03:30:00,30.4,30.4,30.17,NE,51,0.0,-999.0,100,-99.99,,,0.00,0.0,cwc,2013-03-11 09:30:00,
2013-03-11 03:35:00,30.7,30.7,30.16,NE,51,0.0,-999.0,100,-99.99,,,0.00,0.0,cwc,2013-03-11 09:35:00,
2013-03-11 03:40:00,29.4,29.4,30.16,NE,51,0.0,-999.0,100,-99.99,,,0.00,0.0,cwc,2013-03-11 09:40:00,
2013-03-11 03:45:00,36.6,36.6,30.16,NE,51,0.0,-999.0,100,-99.99,,,0.00,0.0,cwc,2013-03-11 09:45:00,
2013-03-11 03:50:00,35.3,35.3,30.12,NE,51,0.0,-999.0,100,-99.99,,,0.00,0.0,cwc,2013-03-11 09:50:00,
2013-03-11 03:55:00,31.3,13.3,30.12,NE,51,0.0,-999.0,50,-99.99,,,0.00,0.0,cwc,2013-03-11 09:55:00,
2013-03-11 04:00:00,27.9,11.0,30.12,NE,51,0.0,-999.0,53,-99.99,,,0.00,0.0,cwc,2013-03-11 10:00:00,
2013-03-11 04:05:00,31.8,31.8,30.16,NE,51,0.0,-999.0,100,-99.99,,,0.00,0.0,cwc,2013-03-11 10:05:00,
2013-03-11 04:10:00,28.4,-7.6,30.16,NE,51,0.0,-999.0,0,-99.99,,,0.00,0.0,cwc,2013-03-11 10:10:00,
2013-03-11 04:15:00,26.7,-9.3,30.16,NE,51,0.0,-999.0,0,-99.99,,,0.00,0.0,cwc,2013-03-11 10:15:00,
2013-03-11 04:20:00,28.5,-7.5,30.17,NE,51,0.0,-999.0,0,-99.99,,,0.00,0.0,cwc,2013-03-11 10:20:00,
2013-03-11 04:25:00,27.6,-8.4,30.17,NE,51,0.0,-999.0,0,-99.99,,,0.00,0.0,cwc,2013-03-11 10:25:00,
2013-03-11 04:30:00,28.4,-7.6,30.17,NE,51,0.0,-999.0,0,-99.99,,,0.00,0.0,cwc,2013-03-11 10:30:00,
2013-03-11 04:35:00,32.7,-3.3,30.17,NE,51,0.0,-999.0,0,-99.99,,,0.00,0.0,cwc,2013-03-11 10:35:00,
2013-03-11 04:40:00,30.1,-5.9,30.17,NE,51,0.0,-999.0,0,-99.99,,,0.00,0.0,cwc,2013-03-11 10:40:00,
2013-03-11 04:45:00,31.5,-4.5,30.17,NE,51,0.0,-999.0,0,-99.99,,,0.00,0.0,cwc,2013-03-11 10:45:00,
2013-03-11 04:50:00,28.4,-7.6,30.14,NE,51,0.0,-999.0,0,-99.99,,,0.00,0.0,cwc,2013-03-11 10:50:00,
2013-03-11 04:55:00,29.8,-6.2,30.14,NE,51,0.0,-999.0,0,-99.99,,,0.00,0.0,cwc,2013-03-11 10:55:00,
2013-03-11 05:00:00,31.3,-4.3,30.14,NE,51,0.0,-999.0,1,-99.99,,,0.00,0.0,cwc,2013-03-11 11:00:00,
2013-03-11 05:05:00,30.3,-5.0,30.13,NE,51,0.0,-999.0,2,-99.99,,,0.00,0.0,cwc,2013-03-11 11:05:00,
2013-03-11 05:10:00,36.6,1.3,30.13,NE,51,0.0,-999.0,2,-99.99,,,0.00,0.0,cwc,2013-03-11 11:10:00,
2013-03-11 05:15:00,35.3,-0.7,30.13,NE,51,0.0,-999.0,0,-99.99,,,0.00,0.0,cwc,2013-03-11 11:15:00,
2013-03-11 05:20:00,34.0,-2.0,30.13,NE,51,0.0,-999.0,0,-99.99,,,0.00,0.0,cwc,2013-03-11 11:20:00,
2013-03-11 05:25:00,31.9,-3.0,30.13,NE,51,0.0,-999.0,3,-99.99,,,0.00,0.0,cwc,2013-03-11 11:25:00,
2013-03-11 05:30:00,32.7,-1.5,30.13,NE,51,0.0,-999.0,5,-99.99,,,0.00,0.0,cwc,2013-03-11 11:30:00,
2013-03-11 05:35:00,31.9,-3.7,30.15,NE,51,0.0,-999.0,1,-99.99,,,0.00,0.0,cwc,2013-03-11 11:35:00,
2013-03-11 05:40:00,29.1,-4.7,30.15,NE,51,0.0,-999.0,6,-99.99,,,0.00,0.0,cwc,2013-03-11 11:40:00,
2013-03-11 05:45:00,25.3,-7.1,30.15,NE,51,0.0,-999.0,10,-99.99,,,0.00,0.0,cwc,2013-03-11 11:45:00,
2013-03-11 05:50:00,25.0,-10.6,30.19,NE,51,0.0,-999.0,1,-99.99,,,0.00,0.0,cwc,2013-03-11 11:50:00,
2013-03-11 05:55:00,24.2,-11.8,30.19,NE,51,0.0,-999.0,0,-99.99,,,0.00,0.0,cwc,2013-03-11 11:55:00,
2013-03-11 06:00:00,25.8,-10.2,30.19,NE,51,0.0,-999.0,0,-99.99,,,0.00,0.0,cwc,2013-03-11 12:00:00,
2013-03-11 06:05:00,28.5,-7.1,30.18,NE,51,0.0,-999.0,1,-99.99,,,0.00,0.0,cwc,2013-03-11 12:05:00,
2013-03-11 06:10:00,28.5,-7.5,30.18,NE,51,0.0,-999.0,0,-99.99,,,0.00,0.0,cwc,2013-03-11 12:10:00,
2013-03-11 06:15:00,28.1,-7.2,30.18,NE,51,0.0,-999.0,2,-99.99,,,0.00,0.0,cwc,2013-03-11 12:15:00,
2013-03-11 06:20:00,38.5,2.5,30.18,NE,51,0.0,-999.0,0,-99.99,,,0.00,0.0,cwc,2013-03-11 12:20:00,
2013-03-11 06:25:00,36.2,0.2,30.18,NE,51,0.0,-999.0,0,-99.99,,,0.00,0.0,cwc,2013-03-11 12:25:00,
2013-03-11 06:30:00,33.4,-2.6,30.18,NE,51,2.0,-999.0,0,-99.99,,,0.00,0.0,cwc,2013-03-11 12:30:00,
2013-03-11 06:35:00,33.5,-2.5,30.14,NE,51,0.0,-999.0,0,-99.99,,,0.00,0.0,cwc,2013-03-11 12:35:00,
2013-03-11 06:40:00,30.7,-5.3,30.14,NE,51,0.0,-999.0,0,-99.99,,,0.00,0.0,cwc,2013-03-11 12:40:00,
2013-03-11 06:45:00,29.8,-6.2,30.14,NE,51,0.0,-999.0,0,-99.99,,,0.00,0.0,cwc,2013-03-11 12:45:00,
2013-03-11 06:50:00,27.6,-8.4,30.18,NE,51,0.0,-999.0,0,-99.99,,,0.00,0.0,cwc,2013-03-11 12:50:00,
2013-03-11 06:55:00,26.6,-9.4,30.18,NE,51,0.0,-999.0,0,-99.99,,,0.00,0.0,cwc,2013-03-11 12:55:00,
2013-03-11 07:00:00,25.8,-10.2,30.18,NE,51,0.0,-999.0,0,-99.99,,,0.00,0.0,cwc,2013-03-11 13:00:00,
2013-03-11 07:05:00,30.9,-5.1,30.19,NE,51,0.0,-999.0,0,-99.99,,,0.00,0.0,cwc,2013-03-11 13:05:00,
2013-03-11 07:10:00,26.7,-9.3,30.19,NE,51,0.0,-999.0,0,-99.99,,,0.00,0.0,cwc,2013-03-11 13:10:00,
2013-03-11 07:15:00,26.1,-9.5,30.19,NE,51,0.0,-999.0,1,-99.99,,,0.00,0.0,cwc,2013-03-11 13:15:00,
2013-03-11 07:20:00,32.1,-3.9,30.19,NE,51,0.0,-999.0,0,-99.99,,,0.00,0.0,cwc,2013-03-11 13:20:00,
2013-03-11 07:25:00,27.3,-8.7,30.19,NE,51,0.0,-999.0,0,-99.99,,,0.00,0.0,cwc,2013-03-11 13:25:00,
2013-03-11 07:30:00,26.0,-6.8,30.19,NE,51,0.0,-999.0,9,-99.99,,,0.00,0.0,cwc,2013-03-11 13:30:00,
2013-03-11 07:35:00,28.5,-4.3,30.22,NE,51,0.0,-999.0,9,-99.99,,,0.00,0.0,cwc,2013-03-11 13:35:00,
2013-03-11 07:40:00,28.4,-5.8,30.22,NE,51,0.0,-999.0,5,-99.99,,,0.00,0.0,cwc,2013-03-11 13:40:00,
2013-03-11 07:45:00,27.8,-6.4,30.22,NE,51,0.0,-999.0,5,-99.99,,,0.00,0.0,cwc,2013-03-11 13:45:00,
2013-03-11 07:50:00,29.4,-5.2,30.22,NE,51,0.0,-999.0,4,-99.99,,,0.00,0.0,cwc,2013-03-11 13:50:00,
2013-03-11 07:55:00,28.5,-5.3,30.22,NE,51,0.0,-999.0,6,-99.99,,,0.00,0.0,cwc,2013-03-11 13:55:00,
2013-03-11 08:00:00,26.6,-6.2,30.22,NE,51,0.0,-999.0,9,-99.99,,,0.00,0.0,cwc,2013-03-11 14:00:00,
2013-03-11 08:05:00,25.8,-7.3,30.23,ENE,58,0.0,-999.0,8,-99.99,,,0.00,0.0,cwc,2013-03-11 14:05:00,
2013-03-11 08:10:00,26.3,-6.8,30.23,ENE,58,1.0,-999.0,8,-99.99,,,0.00,0.0,cwc,2013-03-11 14:10:00,
2013-03-11 08:15:00,26.6,-6.9,30.23,ENE,58,0.0,-999.0,7,-99.99,,,0.00,0.0,cwc,2013-03-11 14:15:00,
2013-03-11 08:20:00,27.6,27.6,30.24,ENE,58,0.0,-999.0,100,-99.99,,,0.00,0.0,cwc,2013-03-11 14:20:00,
2013-03-11 08:25:00,27.6,27.6,30.24,ENE,58,0.0,-999.0,100,-99.99,,,0.00,0.0,cwc,2013-03-11 14:25:00,
2013-03-11 08:30:00,27.6,27.6,30.24,ENE,58,0.0,-999.0,100,-99.99,,,0.00,0.0,cwc,2013-03-11 14:30:00,
2013-03-11 08:35:00,27.6,27.6,30.14,ENE,58,0.0,-999.0,100,-99.99,,,0.00,0.0,cwc,2013-03-11 14:35:00,
2013-03-11 08:40:00,27.6,27.6,30.14,ENE,58,0.0,-999.0,100,-99.99,,,0.00,0.0,cwc,2013-03-11 14:40:00,
2013-03-11 08:45:00,27.6,27.6,30.14,ENE,58,0.0,-999.0,100,-99.99,,,0.00,0.0,cwc,2013-03-11 14:45:00,
2013-03-11 08:50:00,29.1,29.1,30.14,ENE,58,0.0,-999.0,100,-99.99,,,0.00,0.0,cwc,2013-03-11 14:50:00,
2013-03-11 08:55:00,28.4,28.4,30.14,ENE,58,0.0,-999.0,100,-99.99,,,0.00,0.0,cwc,2013-03-11 14:55:00,
2013-03-11 09:00:00,28.4,28.4,30.14,ENE,58,0.0,-999.0,100,-99.99,,,0.00,0.0,cwc,2013-03-11 15:00:00,
2013-03-11 09:05:00,28.2,28.2,30.23,NE,40,7.0,-999.0,100,-99.99,,,0.00,0.0,cwc,2013-03-11 15:05:00,
2013-03-11 09:10:00,28.1,28.1,30.23,NNE,31,6.0,-999.0,100,-99.99,,,0.00,0.0,cwc,2013-03-11 15:10:00,
2013-03-11 09:15:00,28.4,-7.6,30.23,NNE,31,4.0,-999.0,0,-99.99,,,0.00,0.0,cwc,2013-03-11 15:15:00,
2013-03-11 09:20:00,28.8,-6.8,30.26,NNE,31,0.0,-999.0,1,-99.99,,,0.00,0.0,cwc,2013-03-11 15:20:00,
2013-03-11 09:25:00,29.4,-3.4,30.26,NE,42,2.0,-999.0,9,-99.99,,,0.00,0.0,cwc,2013-03-11 15:25:00,
2013-03-11 09:30:00,30.1,5.6,30.26,NE,37,8.0,-999.0,32,-99.99,,,0.00,0.0,cwc,2013-03-11 15:30:00,
2013-03-11 09:35:00,30.7,10.5,30.26,NE,35,2.0,-999.0,44,-99.99,,,0.00,0.0,cwc,2013-03-11 15:35:00,
2013-03-11 09:40:00,31.0,18.4,30.26,NE,40,8.0,-999.0,65,-99.99,,,0.00,0.0,cwc,2013-03-11 15:40:00,
2013-03-11 09:45:00,31.6,19.4,30.26,NE,48,8.0,-999.0,66,-99.99,,,0.00,0.0,cwc,2013-03-11 15:45:00,
2013-03-11 09:50:00,32.2,20.3,30.24,NE,38,4.0,-999.0,67,-99.99,,,0.00,0.0,cwc,2013-03-11 15:50:00,
2013-03-11 09:55:00,32.5,20.3,30.24,NE,54,4.0,-999.0,66,-99.99,,,0.00,0.0,cwc,2013-03-11 15:55:00,
2013-03-11 10:00:00,33.1,18.3,30.24,NE,37,6.0,-999.0,59,-99.99,,,0.00,0.0,cwc,2013-03-11 16:00:00,
2013-03-11 10:05:00,33.2,18.4,30.22,NE,45,7.0,-999.0,59,-99.99,,,0.00,0.0,cwc,2013-03-11 16:05:00,
2013-03-11 10:10:00,33.7,17.9,30.22,NNE,21,7.0,-999.0,56,-99.99,,,0.00,0.0,cwc,2013-03-11 16:10:00,
2013-03-11 10:15:00,34.3,18.1,30.22,NNE,24,4.0,-999.0,55,-99.99,,,0.00,0.0,cwc,2013-03-11 16:15:00,
2013-03-11 10:20:00,35.0,18.1,30.20,ENE,61,2.0,-999.0,53,-99.99,,,0.00,0.0,cwc,2013-03-11 16:20:00,
2013-03-11 10:25:00,35.8,18.5,30.20,ENE,61,4.0,-999.0,52,-99.99,,,0.00,0.0,cwc,2013-03-11 16:25:00,
2013-03-11 10:30:00,36.3,18.7,30.20,NNE,14,9.0,-999.0,51,-99.99,,,0.00,0.0,cwc,2013-03-11 16:30:00,
2013-03-11 10:35:00,36.6,19.0,30.18,NE,37,6.0,-999.0,51,-99.99,,,0.00,0.0,cwc,2013-03-11 16:35:00,
2013-03-11 10:40:00,37.3,19.7,30.18,North,11,4.0,-999.0,51,-99.99,,,0.00,0.0,cwc,2013-03-11 16:40:00,
2013-03-11 10:45:00,38.2,19.8,30.18,North,11,0.0,-999.0,49,-99.99,,,0.00,0.0,cwc,2013-03-11 16:45:00,
2013-03-11 10:50:00,38.6,19.2,30.12,North,11,4.0,-999.0,46,-99.99,,,0.00,0.0,cwc,2013-03-11 16:50:00,
2013-03-11 10:55:00,39.1,18.9,30.12,NNE,32,7.0,-999.0,44,-99.99,,,0.00,0.0,cwc,2013-03-11 16:55:00,
2013-03-11 11:00:00,40.3,20.9,30.12,NNE,25,0.0,-999.0,46,-99.99,,,0.00,0.0,cwc,2013-03-11 17:00:00,
2013-03-11 11:05:00,41.6,22.2,30.16,NW,306,0.0,-999.0,46,-99.99,,,0.00,0.0,cwc,2013-03-11 17:05:00,
2013-03-11 11:10:00,42.9,23.1,30.16,NW,309,0.0,-999.0,45,-99.99,,,0.00,0.0,cwc,2013-03-11 17:10:00,
2013-03-11 11:15:00,42.6,21.7,30.16,NW,318,0.0,-999.0,42,-99.99,,,0.00,0.0,cwc,2013-03-11 17:15:00,
2013-03-11 11:20:00,43.5,22.6,30.12,NW,318,0.0,-999.0,42,-99.99,,,0.00,0.0,cwc,2013-03-11 17:20:00,
2013-03-11 11:25:00,44.5,23.6,30.12,NW,318,0.0,-999.0,42,-99.99,,,0.00,0.0,cwc,2013-03-11 17:25:00,
2013-03-11 11:30:00,43.9,22.3,30.12,NW,318,0.0,-999.0,40,-99.99,,,0.00,0.0,cwc,2013-03-11 17:30:00,
2013-03-11 11:35:00,44.1,22.9,30.12,NNE,25,0.0,-999.0,41,-99.99,,,0.00,0.0,cwc,2013-03-11 17:35:00,
2013-03-11 11:45:00,45.8,24.2,30.12,NNE,25,2.0,-999.0,40,-99.99,,,0.00,0.0,cwc,2013-03-11 17:45:00,
2013-03-11 11:50:00,47.1,23.7,30.10,NNE,25,2.0,-999.0,35,-99.99,,,0.00,0.0,cwc,2013-03-11 17:50:00,
2013-03-11 11:55:00,47.6,23.5,30.10,North,357,4.0,-999.0,33,-99.99,,,0.00,0.0,cwc,2013-03-11 17:55:00,
2013-03-11 12:00:00,47.7,22.5,30.10,North,356,0.0,-999.0,30,-99.99,,,0.00,0.0,cwc,2013-03-11 18:00:00,
2013-03-11 12:05:00,49.5,24.3,30.06,North,354,0.0,-999.0,30,-99.99,,,0.00,0.0,cwc,2013-03-11 18:05:00,
2013-03-11 12:10:00,49.1,24.3,30.06,North,356,2.0,-999.0,31,-99.99,,,0.00,0.0,cwc,2013-03-11 18:10:00,
2013-03-11 12:15:00,48.8,24.0,30.06,NW,319,7.0,-999.0,31,-99.99,,,0.00,0.0,cwc,2013-03-11 18:15:00,
2013-03-11 12:20:00,49.2,25.4,30.08,NW,326,0.0,-999.0,34,-99.99,,,0.00,0.0,cwc,2013-03-11 18:20:00,
2013-03-11 12:25:00,49.6,24.8,30.08,NW,305,0.0,-999.0,31,-99.99,,,0.00,0.0,cwc,2013-03-11 18:25:00,
2013-03-11 12:30:00,50.4,25.9,30.08,SE,134,0.0,-999.0,32,-99.99,,,0.00,0.0,cwc,2013-03-11 18:30:00,
2013-03-11 12:35:00,50.1,25.6,30.06,NW,320,0.0,-999.0,32,-99.99,,,0.00,0.0,cwc,2013-03-11 18:35:00,
2013-03-11 12:40:00,49.9,25.1,30.06,NW,325,0.0,-999.0,31,-99.99,,,0.00,0.0,cwc,2013-03-11 18:40:00,
2013-03-11 12:45:00,49.1,25.0,30.06,NNE,31,6.0,-999.0,33,-99.99,,,0.00,0.0,cwc,2013-03-11 18:45:00,
2013-03-11 12:50:00,49.4,24.9,30.06,NNE,31,0.0,-999.0,32,-99.99,,,0.00,0.0,cwc,2013-03-11 18:50:00,
2013-03-11 12:55:00,50.4,25.2,30.06,NNW,342,7.0,-999.0,30,-99.99,,,0.00,0.0,cwc,2013-03-11 18:55:00,
2013-03-11 13:00:00,49.8,24.2,30.06,North,354,1.0,-999.0,29,-99.99,,,0.00,0.0,cwc,2013-03-11 19:00:00,
2013-03-11 13:05:00,50.7,25.9,30.04,SW,229,13.0,-999.0,31,-99.99,,,0.00,0.0,cwc,2013-03-11 19:05:00,
2013-03-11 13:10:00,50.7,25.1,30.04,South,172,8.0,-999.0,29,-99.99,,,0.00,0.0,cwc,2013-03-11 19:10:00,
2013-03-11 13:15:00,50.2,26.1,30.04,SW,219,11.0,-999.0,33,-99.99,,,0.00,0.0,cwc,2013-03-11 19:15:00,
2013-03-11 13:20:00,51.1,26.3,30.03,SW,216,9.0,-999.0,31,-99.99,,,0.00,0.0,cwc,2013-03-11 19:20:00,
2013-03-11 13:25:00,50.8,24.5,30.03,SSE,162,4.0,-999.0,27,-99.99,,,0.00,0.0,cwc,2013-03-11 19:25:00,
2013-03-11 13:30:00,51.9,25.6,30.03,South,179,6.0,-999.0,27,-99.99,,,0.00,0.0,cwc,2013-03-11 19:30:00,
2013-03-11 13:35:00,51.4,25.1,30.01,SW,232,6.0,-999.0,27,-99.99,,,0.00,0.0,cwc,2013-03-11 19:35:00,
2013-03-11 13:40:00,51.6,25.7,30.01,SE,127,10.0,-999.0,28,-99.99,,,0.00,0.0,cwc,2013-03-11 19:40:00,
2013-03-11 13:45:00,51.3,25.4,30.01,SE,137,4.0,-999.0,28,-99.99,,,0.00,0.0,cwc,2013-03-11 19:45:00,
2013-03-11 13:50:00,52.5,28.0,30.00,NNW,342,4.0,-999.0,32,-99.99,,,0.00,0.0,cwc,2013-03-11 19:50:00,
2013-03-11 13:55:00,51.7,25.8,30.00,ENE,59,0.0,-999.0,28,-99.99,,,0.00,0.0,cwc,2013-03-11 19:55:00,
2013-03-11 14:00:00,52.8,26.5,30.00,ENE,59,0.0,-999.0,27,-99.99,,,0.00,0.0,cwc,2013-03-11 20:00:00,
2013-03-11 14:05:00,53.8,26.4,29.98,South,189,4.0,-999.0,24,-99.99,,,0.00,0.0,cwc,2013-03-11 20:05:00,
2013-03-11 14:10:00,55.0,28.0,29.98,South,175,14.0,-999.0,25,-99.99,,,0.00,0.0,cwc,2013-03-11 20:10:00,
2013-03-11 14:15:00,55.0,27.3,29.98,WSW,239,1.0,-999.0,23,-99.99,,,0.00,0.0,cwc,2013-03-11 20:15:00,
2013-03-11 14:20:00,57.2,29.1,29.93,North,352,0.0,-999.0,22,-99.99,,,0.00,0.0,cwc,2013-03-11 20:20:00,
2013-03-11 14:25:00,57.0,28.6,29.93,West,278,6.0,-999.0,21,-99.99,,,0.00,0.0,cwc,2013-03-11 20:25:00,
2013-03-11 14:30:00,57.3,28.9,29.93,West,277,7.0,-999.0,21,-99.99,,,0.00,0.0,cwc,2013-03-11 20:30:00,
2013-03-11 14:40:00,56.9,27.4,29.93,NW,311,9.0,-999.0,18,-99.99,,,0.00,0.0,cwc,2013-03-11 20:40:00,
2013-03-11 14:45:00,56.2,26.7,29.93,WNW,301,6.0,-999.0,18,-99.99,,,0.00,0.0,cwc,2013-03-11 20:45:00,
2013-03-11 14:50:00,56.9,27.7,29.92,WNW,291,8.0,-999.0,19,-99.99,,,0.00,0.0,cwc,2013-03-11 20:50:00,
2013-03-11 14:55:00,56.3,27.1,29.92,NW,315,14.0,-999.0,19,-99.99,,,0.00,0.0,cwc,2013-03-11 20:55:00,
2013-03-11 15:00:00,56.7,27.2,29.92,West,261,4.0,-999.0,18,-99.99,,,0.00,0.0,cwc,2013-03-11 21:00:00,
2013-03-11 15:05:00,57.6,29.5,29.92,SW,227,11.0,-999.0,22,-99.99,,,0.00,0.0,cwc,2013-03-11 21:05:00,
2013-03-11 15:10:00,56.9,28.8,29.92,WSW,256,10.0,-999.0,22,-99.99,,,0.00,0.0,cwc,2013-03-11 21:10:00,
2013-03-11 15:15:00,57.2,28.4,29.92,NW,304,14.0,-999.0,20,-99.99,,,0.00,0.0,cwc,2013-03-11 21:15:00,
2013-03-11 15:20:00,56.9,27.7,29.93,WNW,291,13.0,-999.0,19,-99.99,,,0.00,0.0,cwc,2013-03-11 21:20:00,
2013-03-11 15:25:00,56.9,27.4,29.93,West,268,10.0,-999.0,18,-99.99,,,0.00,0.0,cwc,2013-03-11 21:25:00,
2013-03-11 15:30:00,56.9,28.1,29.93,NNW,343,2.0,-999.0,20,-99.99,,,0.00,0.0,cwc,2013-03-11 21:30:00,
2013-03-11 15:35:00,56.7,27.9,29.93,West,268,6.0,-999.0,20,-99.99,,,0.00,0.0,cwc,2013-03-11 21:35:00,
2013-03-11 15:40:00,56.0,27.6,29.93,SW,219,11.0,-999.0,21,-99.99,,,0.00,0.0,cwc,2013-03-11 21:40:00,
2013-03-11 15:45:00,56.6,28.5,29.93,SW,229,8.0,-999.0,22,-99.99,,,0.00,0.0,cwc,2013-03-11 21:45:00,
2013-03-11 15:50:00,57.2,29.1,29.92,West,264,2.0,-999.0,22,-99.99,,,0.00,0.0,cwc,2013-03-11 21:50:00,
2013-03-11 15:55:00,58.3,29.5,29.92,NW,315,9.0,-999.0,20,-99.99,,,0.00,0.0,cwc,2013-03-11 21:55:00,
2013-03-11 16:00:00,56.9,27.7,29.92,WNW,287,7.0,-999.0,19,-99.99,,,0.00,0.0,cwc,2013-03-11 22:00:00,
2013-03-11 16:05:00,57.3,28.1,29.92,NW,320,8.0,-999.0,19,-99.99,,,0.00,0.0,cwc,2013-03-11 22:05:00,
2013-03-11 16:10:00,57.3,28.1,29.92,West,267,4.0,-999.0,19,-99.99,,,0.00,0.0,cwc,2013-03-11 22:10:00,
2013-03-11 16:15:00,57.6,28.8,29.92,WSW,247,9.0,-999.0,20,-99.99,,,0.00,0.0,cwc,2013-03-11 22:15:00,
2013-03-11 16:25:00,57.3,28.5,29.88,West,270,4.0,-999.0,20,-99.99,,,0.00,0.0,cwc,2013-03-11 22:25:00,
2013-03-11 16:30:00,58.3,29.9,29.88,NW,309,11.0,-999.0,21,-99.99,,,0.00,0.0,cwc,2013-03-11 22:30:00,
2013-03-11 16:35:00,57.8,29.4,29.88,WSW,257,9.0,-999.0,21,-99.99,,,0.00,0.0,cwc,2013-03-11 22:35:00,
2013-03-11 16:40:00,57.5,29.4,29.88,West,272,7.0,-999.0,22,-99.99,,,0.00,0.0,cwc,2013-03-11 22:40:00,
2013-03-11 16:45:00,57.5,28.7,29.88,WNW,298,6.0,-999.0,20,-99.99,,,0.00,0.0,cwc,2013-03-11 22:45:00,
2013-03-11 16:50:00,57.5,29.4,29.87,West,264,10.0,-999.0,22,-99.99,,,0.00,0.0,cwc,2013-03-11 22:50:00,
2013-03-11 16:55:00,57.5,28.7,29.87,West,275,9.0,-999.0,20,-99.99,,,0.00,0.0,cwc,2013-03-11 22:55:00,
2013-03-11 17:00:00,57.3,28.9,29.87,WNW,288,9.0,-999.0,21,-99.99,,,0.00,0.0,cwc,2013-03-11 23:00:00,
2013-03-11 17:05:00,57.0,28.6,29.87,West,267,8.0,-999.0,21,-99.99,,,0.00,0.0,cwc,2013-03-11 23:05:00,
2013-03-11 17:10:00,56.7,28.3,29.87,WNW,295,8.0,-999.0,21,-99.99,,,0.00,0.0,cwc,2013-03-11 23:10:00,
2013-03-11 17:15:00,56.7,28.3,29.87,NW,304,13.0,-999.0,21,-99.99,,,0.00,0.0,cwc,2013-03-11 23:15:00,
2013-03-11 17:20:00,56.7,28.3,29.89,NNW,328,17.0,-999.0,21,-99.99,,,0.00,0.0,cwc,2013-03-11 23:20:00,
2013-03-11 17:25:00,56.3,27.5,29.89,WNW,298,16.0,-999.0,20,-99.99,,,0.00,0.0,cwc,2013-03-11 23:25:00,
2013-03-11 17:30:00,56.0,27.6,29.89,West,270,9.0,-999.0,21,-99.99,,,0.00,0.0,cwc,2013-03-11 23:30:00,
2013-03-11 17:35:00,56.0,27.9,29.89,West,281,9.0,-999.0,22,-99.99,,,0.00,0.0,cwc,2013-03-11 23:35:00,
2013-03-11 17:40:00,55.7,27.3,29.89,NW,305,4.0,-999.0,21,-99.99,,,0.00,0.0,cwc,2013-03-11 23:40:00,
2013-03-11 17:45:00,55.6,27.9,29.89,WNW,301,14.0,-999.0,23,-99.99,,,0.00,0.0,cwc,2013-03-11 23:45:00,
2013-03-11 17:50:00,55.3,27.9,29.91,West,281,8.0,-999.0,24,-99.99,,,0.00,0.0,cwc,2013-03-11 23:50:00,
2013-03-11 17:55:00,55.3,27.6,29.91,West,271,7.0,-999.0,23,-99.99,,,0.00,0.0,cwc,2013-03-11 23:55:00,
2013-03-11 18:00:00,55.0,27.6,29.91,NW,318,13.0,-999.0,24,-99.99,,,0.00,0.0,cwc,2013-03-12 00:00:00,
2013-03-11 18:05:00,54.8,27.1,29.92,WNW,292,7.0,-999.0,23,-99.99,,,0.00,0.0,cwc,2013-03-12 00:05:00,
2013-03-11 18:10:00,54.7,27.0,29.92,West,278,2.0,-999.0,23,-99.99,,,0.00,0.0,cwc,2013-03-12 00:10:00,
2013-03-11 18:15:00,54.1,27.1,29.92,WSW,241,9.0,-999.0,25,-99.99,,,0.00,0.0,cwc,2013-03-12 00:15:00,
2013-03-11 18:20:00,54.1,27.5,29.93,WNW,289,6.0,-999.0,26,-99.99,,,0.00,0.0,cwc,2013-03-12 00:20:00,
2013-03-11 18:30:00,53.2,26.6,29.93,West,270,8.0,-999.0,26,-99.99,,,0.00,0.0,cwc,2013-03-12 00:30:00,
2013-03-11 18:35:00,52.9,26.3,29.94,West,274,8.0,-999.0,26,-99.99,,,0.00,0.0,cwc,2013-03-12 00:35:00,
2013-03-11 18:40:00,52.5,25.9,29.94,WSW,257,4.0,-999.0,26,-99.99,,,0.00,0.0,cwc,2013-03-12 00:40:00,
2013-03-11 18:45:00,52.5,26.2,29.94,WNW,291,2.0,-999.0,27,-99.99,,,0.00,0.0,cwc,2013-03-12 00:45:00,
2013-03-11 18:50:00,52.6,27.8,29.93,WNW,288,0.0,-999.0,31,-99.99,,,0.00,0.0,cwc,2013-03-12 00:50:00,
2013-03-11 18:55:00,52.2,26.3,29.93,WNW,288,2.0,-999.0,28,-99.99,,,0.00,0.0,cwc,2013-03-12 00:55:00,
2013-03-11 19:00:00,51.9,25.6,29.93,WNW,288,1.0,-999.0,27,-99.99,,,0.00,0.0,cwc,2013-03-12 01:00:00,
2013-03-11 19:05:00,51.4,25.8,29.96,WNW,288,0.0,-999.0,29,-99.99,,,0.00,0.0,cwc,2013-03-12 01:05:00,
2013-03-11 19:10:00,51.4,25.5,29.96,NW,308,0.0,-999.0,28,-99.99,,,0.00,0.0,cwc,2013-03-12 01:10:00,
2013-03-11 19:15:00,51.1,25.9,29.96,NW,308,7.0,-999.0,30,-99.99,,,0.00,0.0,cwc,2013-03-12 01:15:00,
2013-03-11 19:20:00,51.1,25.9,29.99,NW,308,2.0,-999.0,30,-99.99,,,0.00,0.0,cwc,2013-03-12 01:20:00,
2013-03-11 19:25:00,50.8,25.6,29.99,NW,308,0.0,-999.0,30,-99.99,,,0.00,0.0,cwc,2013-03-12 01:25:00,
2013-03-11 19:30:00,51.1,25.9,29.99,NW,308,0.0,-999.0,30,-99.99,,,0.00,0.0,cwc,2013-03-12 01:30:00,
2013-03-11 19:35:00,52.3,27.1,29.99,NW,308,0.0,-999.0,30,-99.99,,,0.00,0.0,cwc,2013-03-12 01:35:00,
2013-03-11 19:40:00,51.0,28.0,29.99,NW,308,0.0,-999.0,36,-99.99,,,0.00,0.0,cwc,2013-03-12 01:40:00,
2013-03-11 19:45:00,51.0,30.8,29.99,NW,308,0.0,-999.0,44,-99.99,,,0.00,0.0,cwc,2013-03-12 01:45:00,
2013-03-11 19:50:00,49.1,26.1,30.00,NW,308,0.0,-999.0,36,-99.99,,,0.00,0.0,cwc,2013-03-12 01:50:00,
2013-03-11 19:55:00,47.7,25.7,30.00,NW,308,0.0,-999.0,39,-99.99,,,0.00,0.0,cwc,2013-03-12 01:55:00,
2013-03-11 20:00:00,46.7,25.8,30.00,NNE,28,2.0,-999.0,42,-99.99,,,0.00,0.0,cwc,2013-03-12 02:00:00,
2013-03-11 20:05:00,45.7,24.8,30.03,ENE,66,2.0,-999.0,42,-99.99,,,0.00,0.0,cwc,2013-03-12 02:05:00,
2013-03-11 20:10:00,45.4,25.6,30.03,ENE,66,0.0,-999.0,45,-99.99,,,0.00,0.0,cwc,2013-03-12 02:10:00,
2013-03-11 20:15:00,46.0,32.3,30.03,ENE,66,0.0,-999.0,62,-99.99,,,0.00,0.0,cwc,2013-03-12 02:15:00,
2013-03-11 20:20:00,45.7,28.4,30.02,ENE,66,0.0,-999.0,52,-99.99,,,0.00,0.0,cwc,2013-03-12 02:20:00,
2013-03-11 20:25:00,44.9,25.5,30.02,ENE,66,0.0,-999.0,46,-99.99,,,0.00,0.0,cwc,2013-03-12 02:25:00,
2013-03-11 20:30:00,44.2,25.5,30.02,ENE,66,0.0,-999.0,48,-99.99,,,0.00,0.0,cwc,2013-03-12 02:30:00,
2013-03-11 20:35:00,43.8,24.7,30.05,ENE,66,2.0,-999.0,47,-99.99,,,0.00,0.0,cwc,2013-03-12 02:35:00,
2013-03-11 20:40:00,43.6,24.9,30.05,ENE,66,0.0,-999.0,48,-99.99,,,0.00,0.0,cwc,2013-03-12 02:40:00,
2013-03-11 20:45:00,43.3,25.7,30.05,ENE,66,0.0,-999.0,51,-99.99,,,0.00,0.0,cwc,2013-03-12 02:45:00,
2013-03-11 20:50:00,42.8,24.8,30.07,ENE,66,0.0,-999.0,50,-99.99,,,0.00,0.0,cwc,2013-03-12 02:50:00,
2013-03-11 20:55:00,42.3,24.3,30.07,ENE,66,1.0,-999.0,50,-99.99,,,0.00,0.0,cwc,2013-03-12 02:55:00,
2013-03-11 21:00:00,42.1,24.5,30.07,ENE,66,0.0,-999.0,51,-99.99,,,0.00,0.0,cwc,2013-03-12 03:00:00,
2013-03-11 21:05:00,42.5,27.4,30.08,ENE,66,0.0,-999.0,58,-99.99,,,0.00,0.0,cwc,2013-03-12 03:05:00,
2013-03-11 21:10:00,43.1,30.1,30.08,ENE,66,0.0,-999.0,64,-99.99,,,0.00,0.0,cwc,2013-03-12 03:10:00,
2013-03-11 21:15:00,43.1,29.1,30.08,ENE,66,0.0,-999.0,61,-99.99,,,0.00,0.0,cwc,2013-03-12 03:15:00,
2013-03-11 21:20:00,41.9,24.3,30.04,ENE,66,2.0,-999.0,51,-99.99,,,0.00,0.0,cwc,2013-03-12 03:20:00,
2013-03-11 21:25:00,42.5,28.8,30.04,ENE,66,0.0,-999.0,62,-99.99,,,0.00,0.0,cwc,2013-03-12 03:25:00,
2013-03-11 21:30:00,41.9,25.3,30.04,ENE,66,0.0,-999.0,54,-99.99,,,0.00,0.0,cwc,2013-03-12 03:30:00,
2013-03-11 21:35:00,43.1,28.3,30.06,ENE,66,0.0,-999.0,59,-99.99,,,0.00,0.0,cwc,2013-03-12 03:35:00,
2013-03-11 21:40:00,42.6,29.3,30.06,ENE,66,0.0,-999.0,63,-99.99,,,0.00,0.0,cwc,2013-03-12 03:40:00,
2013-03-11 21:45:00,41.9,26.1,30.06,ENE,66,0.0,-999.0,56,-99.99,,,0.00,0.0,cwc,2013-03-12 03:45:00,
2013-03-11 21:50:00,41.3,26.5,30.07,ENE,66,0.0,-999.0,59,-99.99,,,0.00,0.0,cwc,2013-03-12 03:50:00,
2013-03-11 21:55:00,42.3,27.9,30.07,ENE,66,0.0,-999.0,60,-99.99,,,0.00,0.0,cwc,2013-03-12 03:55:00,
2013-03-11 22:00:00,41.6,29.4,30.07,ENE,66,0.0,-999.0,66,-99.99,,,0.00,0.0,cwc,2013-03-12 04:00:00,
2013-03-11 22:05:00,40.5,24.7,30.06,ENE,66,2.0,-999.0,56,-99.99,,,0.00,0.0,cwc,2013-03-12 04:05:00,
2013-03-11 22:10:00,39.9,24.1,30.06,ENE,66,4.0,-999.0,56,-99.99,,,0.00,0.0,cwc,2013-03-12 04:10:00,
2013-03-11 22:15:00,39.8,24.7,30.06,ENE,66,2.0,-999.0,58,-99.99,,,0.00,0.0,cwc,2013-03-12 04:15:00,
2013-03-11 22:20:00,39.9,24.4,30.04,ENE,71,2.0,-999.0,57,-99.99,,,0.00,0.0,cwc,2013-03-12 04:20:00,
2013-03-11 22:25:00,39.8,25.0,30.04,ENE,71,0.0,-999.0,59,-99.99,,,0.00,0.0,cwc,2013-03-12 04:25:00,
2013-03-11 22:30:00,44.5,29.4,30.04,ENE,71,0.0,-999.0,58,-99.99,,,0.00,0.0,cwc,2013-03-12 04:30:00,
2013-03-11 22:35:00,42.8,29.8,30.01,ENE,71,0.0,-999.0,64,-99.99,,,0.00,0.0,cwc,2013-03-12 04:35:00,
2013-03-11 22:45:00,40.6,27.3,30.01,ENE,71,0.0,-999.0,63,-99.99,,,0.00,0.0,cwc,2013-03-12 04:45:00,
2013-03-11 22:50:00,38.8,23.7,30.03,ENE,71,0.0,-999.0,58,-99.99,,,0.00,0.0,cwc,2013-03-12 04:50:00,
2013-03-11 22:55:00,38.5,23.0,30.03,ENE,71,0.0,-999.0,57,-99.99,,,0.00,0.0,cwc,2013-03-12 04:55:00,
2013-03-11 23:00:00,38.0,22.9,30.03,ENE,71,6.0,-999.0,58,-99.99,,,0.00,0.0,cwc,2013-03-12 05:00:00,
2013-03-11 23:05:00,37.9,23.1,30.07,ENE,71,0.0,-999.0,59,-99.99,,,0.00,0.0,cwc,2013-03-12 05:05:00,
2013-03-11 23:10:00,37.9,23.1,30.07,ENE,71,4.0,-999.0,59,-99.99,,,0.00,0.0,cwc,2013-03-12 05:10:00,
2013-03-11 23:15:00,38.0,24.7,30.07,ENE,71,6.0,-999.0,63,-99.99,,,0.00,0.0,cwc,2013-03-12 05:15:00,
2013-03-11 23:20:00,38.2,25.6,30.02,ENE,71,2.0,-999.0,65,-99.99,,,0.00,0.0,cwc,2013-03-12 05:20:00,
2013-03-11 23:25:00,39.5,26.9,30.02,ENE,71,0.0,-999.0,65,-99.99,,,0.00,0.0,cwc,2013-03-12 05:25:00,
2013-03-11 23:30:00,38.2,24.9,30.02,ENE,71,4.0,-999.0,63,-99.99,,,0.00,0.0,cwc,2013-03-12 05:30:00,
2013-03-11 23:35:00,38.0,25.4,30.02,East,86,0.0,-999.0,65,-99.99,,,0.00,0.0,cwc,2013-03-12 05:35:00,
2013-03-11 23:40:00,37.5,24.5,30.02,East,86,0.0,-999.0,64,-99.99,,,0.00,0.0,cwc,2013-03-12 05:40:00,
2013-03-11 23:45:00,36.8,23.1,30.02,East,86,6.0,-999.0,62,-99.99,,,0.00,0.0,cwc,2013-03-12 05:45:00,
2013-03-11 23:50:00,36.6,23.6,30.02,East,86,0.0,-999.0,64,-99.99,,,0.00,0.0,cwc,2013-03-12 05:50:00,
2013-03-11 23:55:00,36.5,23.5,30.02,East,86,0.0,-999.0,64,-99.99,,,0.00,0.0,cwc,2013-03-12 05:55:00,